Location: Cicognara
(44.9500°N, 10.4667°E)
Time: 02:53:02
(UTC+00:00)

Cosmos 1455 - Visible Passes

Search period start: 17 October 2021 00:00
Search period end: 27 October 2021 00:00
Orbit: 497 x 520 km, 82.5° (Epoch: 16 October)

Date Brightness Start Highest point End Pass type
(mag) Time Alt. Az. Time Alt. Az. Time Alt. Az.
20 Oct 5.1 05:06:32 10° NNE 05:09:14 19° ENE 05:11:55 10° ESE visible
21 Oct 5.2 04:49:39 10° NNE 04:51:52 15° ENE 04:54:04 10° ESE visible
22 Oct 5.4 04:33:01 10° NE 04:34:29 12° ENE 04:35:56 10° E visible
25 Oct 2.6 05:14:50 10° N 05:18:35 68° E 05:22:16 10° SSE visible
25 Oct 4.1 17:30:51 10° SE 17:31:44 15° SE 17:31:44 15° SE visible
25 Oct 5.0 19:06:04 10° SW 19:06:45 14° SW 19:06:45 14° SW visible
26 Oct 3.1 04:57:36 10° N 05:01:16 51° ENE 05:04:53 10° SSE visible
26 Oct 3.6 17:14:03 10° SE 17:16:37 18° E 17:16:51 18° E visible
26 Oct 3.9 18:48:29 10° SW 18:51:52 32° WNW 18:51:52 32° WNW visible
